Location: Chanteloup
(48.8560°N, 2.7390°E)
Time: 15:45:00
(UTC+00:00)

Cosmos 1825 - Pass Details

Date: 24 October 2021
Orbit: 501 x 504 km, 82.5° (Epoch: 27 November)

Event Time Altitude Azimuth Distance (km) Brightness Sun altitude
Rises 17:55:07 0° 3° (N) 2,610 5.7 -12.6°
Reaches altitude 10° 17:57:45 10° 22° (NNE) 1,720 4.6 -13.0°
Enters shadow 17:59:46 18° 54° (NE) 1,295 3.7 -13.4°
